{"data":{"norad_id":63025,"intl_designator":"2025-032W","name":"STARLINK-32926","alt_names":[],"object_type":"PAYLOAD","status":"ACTIVE","operator":null,"country":"US","launch_date":"2025-02-15","launch_site_code":"AFETR","launch_vehicle":null,"mission":null,"orbit_class":"UNKNOWN","rcs_meters":null,"size_class":null,"mass_kg":null,"dimensions":null,"purposes":["comms"],"wikipedia_slug":null,"has_3d_model":false,"image_url":null,"decayed_at":null,"tle_current":{"epoch":"2026-09-20T03:35:57.477984Z","epoch_age_seconds":195057,"freshness":"STALE","line1":"1 63025U 25032W   26263.14997081  .00009073  00000+0  33879-3 0  9997","line2":"2 63025  43.0017 317.5333 0001012 270.1059  89.9677 15.27582261 90369","mean_motion":15.27582261,"eccentricity":0.0001012,"inclination_deg":43.0017,"raan_deg":317.5333,"arg_perigee_deg":270.1059,"mean_anomaly_deg":89.9677,"bstar":0.00033879,"rev_number":9036,"period_min":94.266609187864,"perigee_km":482.34797445284,"apogee_km":483.73667714838,"semimajor_km":6861.1793258006,"source":"CELESTRAK","updated_at":"2026-09-22T09:00:49.742952Z"}}}